Regional Weather Roundup
Issued by NWS

Home | Current Version | Previous Version | Text Only | Print | Product List | Glossary Off
Versions: 1 2 3 4 5 6 7 8 9 10 11 12 13 14 15 16 17 18 19 20 21 22 23 24 25 26 27 28 29 30 31 32 33 34 35 36 37 38 39 40 41 42 43 44 45 46 47 48 49 50

000
ASUS43 KMKX 260100
RWRWI

WISCONSIN REGIONAL WEATHER ROUNDUP
NATIONAL WEATHER SERVICE MILWAUKEE/SULLIVAN WI
800 PM CDT SUN SEP 25 2016

NOTE: "FAIR" INDICATES FEW OR NO CLOUDS BELOW 12,000 FEET WITH NO
SIGNIFICANT WEATHER AND/OR OBSTRUCTIONS TO VISIBILITY.

WIZ001-002-006>008-014>016-023>028-260200-
NORTHWEST WISCONSIN

CITY           SKY/WX    TMP DP  RH WIND       PRES   REMARKS
SUPERIOR ARPT  CLOUDY    59  54  82 W9G17     29.80R
ASHLAND        CLOUDY    60  53  77 SW14G22   29.81S
HAYWARD        CLOUDY    57  54  89 SW6       29.85S
SIREN          CLOUDY    57  53  87 W12       29.88R
CUMBERLAND     CLOUDY    55  54  94 W12       29.88S
RICE LAKE      CLOUDY    58  54  88 SW8       29.90R
CHETEK         NOT AVBL
LADYSMITH      CLOUDY    60  53  76 SW8       29.89R
EAU CLAIRE     NOT AVBL
MENOMONIE      HVY RAIN  60  55  83 SW14      29.92R
NEW RICHMOND   CLOUDY    56  54  94 W10       29.92R
OSCEOLA        CLOUDY    58  52  82 W10G17    29.94S
$$

WIZ003>005-009-010-017-018-260200-
NORTH CENTRAL WISCONSIN

CITY           SKY/WX    TMP DP  RH WIND       PRES   REMARKS
MANITOWISH WTR NOT AVBL
ARBOR VITAE    CLOUDY    62  55  79 W12       29.85R
WOODRUFF       CLOUDY    62  55  79 W12       29.85R
RHINELANDER    CLOUDY    61  55  81 W10       29.86S
EAGLE RIVER    CLOUDY    61  57  86 W8        29.84R
LAND O LAKES   CLOUDY    63  57  81 SW6       29.84S
PHILLIPS       MOCLDY    58  52  81 SW6       29.86S
TOMAHAWK       CLOUDY    61  53  76 W8        29.87R
MEDFORD        CLOUDY    59  54  85 W6        29.88S
MERRILL        CLOUDY    62  56  82 W6        29.87S
$$

WIZ029-030-035-036-043>047-260200-
CENTRAL WISCONSIN

CITY           SKY/WX    TMP DP  RH WIND       PRES   REMARKS
WAUSAU         CLOUDY    62  53  72 W16       29.87R
MOSINEE        NOT AVBL
MARSHFIELD     CLOUDY    62  53  72 W8        29.90R
STEVENS POINT  CLOUDY    63  55  75 W10       29.89R
WAUPACA        CLOUDY    69  60  72 W10G21    29.88R
WAUTOMA        CLOUDY    66  56  70 W13       29.91R
WISC RAPIDS    PTCLDY    63  55  75 W7        29.92R
CAMP DOUGLAS   NOT AVBL
$$

WIZ011>013-019>022-031-037>040-048>050-260200-
NORTHEAST WISCONSIN

CITY           SKY/WX    TMP DP  RH WIND       PRES   REMARKS
ANTIGO         CLOUDY    61  57  87 W8        29.86R
SHAWANO        LGT RAIN  67  64  90 SW5G20    29.84R
OCONTO         NOT AVBL
STURGEON BAY   LGT RAIN  66  65  96 S12       29.84F
GREEN BAY      CLOUDY    67  67 100 S7        29.84S FOG
MANITOWOC      CLOUDY    68  66  94 SW5       29.86S
APPLETON       DRIZZLE   68  68 100 SW8       29.84R FOG
CLINTONVILLE   NOT AVBL
OSHKOSH        LGT RAIN  71  65  81 W8        29.87R
$$

WIZ032>034-041-042-053>061-260200-
SOUTHWEST WISCONSIN

CITY           SKY/WX    TMP DP  RH WIND       PRES   REMARKS
LA CROSSE        N/A     63  54  72 W15       29.96R
SPARTA         CLOUDY    64  55  73 W5        29.93R
VIROQUA        CLOUDY    62  52  69 W9G16     29.96R
BOSCOBEL       CLOUDY    65  54  67 SW7       29.97R
PRAIRIE DU CHI CLOUDY    65  49  55 W10G18    29.98R
PLATTEVILLE    CLOUDY    64  55  75 W10G16    29.98S
$$

WIZ056-057-062-063-064-067-068-260200-
SOUTH CENTRAL WISCONSIN

CITY           SKY/WX    TMP DP  RH WIND       PRES   REMARKS
REEDSBURG      NOT AVBL
BARABOO/DELLS  CLOUDY    64  51  60 W10G20    29.94R
LONE ROCK      NOT AVBL
MINERAL POINT  CLOUDY    64  54  68 W8        29.97S
MADISON        CLOUDY    67  55  65 W9G22     29.93R
MIDDLETON      CLOUDY    67  55  65 W16G25    29.94R
WATERTOWN      CLOUDY    72  67  85 W13       29.89R
MONROE         CLOUDY    66  54  63 W20G32    29.96R
JANESVILLE     CLOUDY    72  57  60 W16G23    29.93R
$$

WIZ051-052-058>065-066-070>072-260200-
SOUTHEAST WISCONSIN

CITY           SKY/WX    TMP DP  RH WIND       PRES   REMARKS
MILWAUKEE      HVY RAIN  72  68  87 SW10      29.88S FOG
WAUKESHA       NOT AVBL
MILWAUKEE/TIMM PTCLDY    70  66  88 SW3       29.88S
RACINE         CLOUDY    70  68  93 SW5       29.90F
BURLINGTON     CLOUDY    71  69  96 CALM      29.89R FOG
KENOSHA        TSTM      71  69  93 CALM      29.89R
FOND DU LAC    LGT RAIN  71  68  90 W7        29.88R
SHEBOYGAN      CLOUDY    68  66  93 SW6       29.87S FOG
WEST BEND      CLOUDY    68  68 100 S5        29.88S
JUNEAU         DRIZZLE   71  65  80 W14G20    29.91R
$$

LSZ147-162-260200-
LAKE SUPERIOR

STATION/POSITION TIME  TEMP    WIND        PRES    WAVE
                       AIR SEA DIR/SP/G            HT/PER
                 (UTC) (F)     (DEG/KT/KT) (MB)    (FT/S)
W MID LAKE BUOY  2350   62 61  250/ 25/ 31 1006.0S   3/ 4
DEVILS ISLAND    0000   60     220/ 14/ 16 1008.1R
SAXON HARBOR     0000   64     200/  5/ 10 1009.1
$$

LMZ867-665-643>646-260200-
LAKE MICHIGAN

STATION/POSITION TIME  TEMP    WIND        PRES    WAVE
                       AIR SEA DIR/SP/G            HT/PER
                 (UTC) (F)     (DEG/KT/KT) (MB)    (FT/S)
CHAMBERS ISLAND  0000   66     160/  5/ 13 1010.2F
N MID LAKE BUOY  2350   68 68  160/ 17/ 21 1009.7F   3/ 5
NORTHPORT PIER   0000   66     160/  9/ 16 1010.5F
KEWAUNEE LAKESHO 0000   67     190/ 15/ 19 1010.7R
SHEBOYGAN LAKESH 0000   68     190/ 18/ 21 1010.9R
PORT WASHINGTON  0000   65     190/  5/  7 1012.5S
ATWATER BUOY     0000   61 54  140/  8/ 10 1011.6S
MILWAUKEE LAKESH 0010   67     120/  1/  2   N/A
S MID LAKE BUOY  2350   71 72  250/ 16/ 27 1012.4R   2/ 4
KENOSHA   LAKESH 0000   66     180/  9/ 15 1011.5S
$$

TC  - TEMPERATURE IN CELSIUS
VSB - VISIBILITY IN STATUTE MILES
WCI - WIND CHILL INDEX
HX  - HEAT INDEX





USA.gov is the U.S. government's official web portal to all federal, state and local government web resources and services.